| time (UTC) | temp F | wind direction | speed knots | gust knots | rain 1hr in | rain 24hr in | rain mn in | humidity % | barometer mb |
| 20260901080236 | 56 | 65 | 4.3 | 7.0 | 0.00 | 0.00 | 0.00 | 45 | 1017.4 |
| 20260901075735 | 56 | 59 | 3.5 | 7.0 | 0.00 | 0.00 | 0.00 | 46 | 1017.3 |
| 20260901075235 | 56 | 30 | 4.3 | 6.1 | 0.00 | 0.00 | 0.00 | 46 | 1017.3 |
| 20260901074735 | 56 | 75 | 4.3 | 6.1 | 0.00 | 0.00 | 0.00 | 46 | 1017.4 |
| 20260901073735 | 57 | 42 | 1.7 | 6.1 | 0.00 | 0.00 | 0.00 | 47 | 1017.5 |
| 20260901073235 | 57 | 51 | 4.3 | 6.1 | 0.00 | 0.00 | 0.00 | 47 | 1017.4 |
| 20260901072236 | 57 | 40 | 4.3 | 7.0 | 0.00 | 0.00 | 0.00 | 48 | 1017.4 |
| 20260901071735 | 57 | 76 | 3.5 | 7.0 | 0.00 | 0.00 | 0.00 | 48 | 1017.5 |
| 20260901071236 | 57 | 71 | 3.5 | 7.0 | 0.00 | 0.00 | 0.00 | 50 | 1017.5 |
| 20260901065735 | 58 | 75 | 3.5 | 6.1 | 0.00 | 0.00 | 0.00 | 49 | 1017.8 |
| 20260901065234 | 58 | 69 | 5.2 | 7.8 | 0.00 | 0.00 | 0.00 | 50 | 1017.8 |
| 20260901064734 | 58 | 67 | 4.3 | 7.8 | 0.00 | 0.00 | 0.00 | 50 | 1017.8 |
| 20260901063734 | 58 | 58 | 5.2 | 5.2 | 0.00 | 0.00 | 0.00 | 49 | 1017.9 |
| 20260901063234 | 58 | 57 | 4.3 | 6.1 | 0.00 | 0.00 | 0.00 | 49 | 1017.9 |
| 20260901062734 | 58 | 51 | 3.5 | 6.1 | 0.00 | 0.00 | 0.00 | 48 | 1017.8 |
| 20260901062223 | 58 | 61 | 4.3 | 6.1 | 0.00 | 0.00 | 0.00 | 50 | 1017.8 |
| 20260901061234 | 58 | 47 | 4.3 | 6.1 | 0.00 | 0.00 | 0.00 | 46 | 1017.8 |
| 20260901060734 | 59 | 17 | 3.5 | 6.1 | 0.00 | 0.00 | 0.00 | 47 | 1017.9 |
| 20260901060234 | 59 | 44 | 2.6 | 4.3 | 0.00 | 0.00 | 0.00 | 46 | 1017.9 |
| 20260901055234 | 58 | 44 | 2.6 | 3.5 | 0.00 | 0.00 | 0.00 | 47 | 1017.7 |
| 20260901054734 | 58 | 48 | 2.6 | 3.5 | 0.00 | 0.00 | 0.00 | 45 | 1017.6 |
| 20260901054234 | 58 | 56 | 0.0 | 3.5 | 0.00 | 0.00 | 0.00 | 45 | 1017.6 |
| 20260901053734 | 59 | 64 | 0.9 | 4.3 | 0.00 | 0.00 | 0.00 | 47 | 1017.8 |
| 20260901052734 | 59 | 80 | 2.6 | 4.3 | 0.00 | 0.00 | 0.00 | 50 | 1017.8 |
| 20260901052234 | 59 | 74 | 0.9 | 6.1 | 0.00 | 0.00 | 0.00 | 52 | 1017.9 |
| 20260901051733 | 59 | 72 | 1.7 | 6.1 | 0.00 | 0.00 | 0.00 | 52 | 1017.9 |
| 20260901051233 | 59 | 67 | 2.6 | 4.3 | 0.00 | 0.00 | 0.00 | 50 | 1017.8 |
| 20260901050234 | 59 | 76 | 1.7 | 6.1 | 0.00 | 0.00 | 0.00 | 51 | 1017.9 |
| 20260901045733 | 59 | 84 | 3.5 | 4.3 | 0.00 | 0.00 | 0.00 | 50 | 1017.5 |
| 20260901045234 | 59 | 71 | 2.6 | 4.3 | 0.00 | 0.00 | 0.00 | 50 | 1017.4 |
| 20260901044733 | 59 | 73 | 2.6 | 4.3 | 0.00 | 0.00 | 0.00 | 49 | 1017.5 |
| 20260901044234 | 59 | 61 | 2.6 | 3.5 | 0.00 | 0.00 | 0.00 | 51 | 1017.5 |
| 20260901043733 | 59 | 67 | 2.6 | 3.5 | 0.00 | 0.00 | 0.00 | 53 | 1017.6 |
| 20260901043233 | 60 | 54 | 2.6 | 5.2 | 0.00 | 0.00 | 0.00 | 51 | 1017.6 |
| 20260901042733 | 60 | 63 | 2.6 | 5.2 | 0.00 | 0.00 | 0.00 | 56 | 1017.5 |
| 20260901042233 | 60 | 55 | 2.6 | 4.3 | 0.00 | 0.00 | 0.00 | 57 | 1017.5 |
| 20260901041733 | 60 | 63 | 2.6 | 4.3 | 0.00 | 0.00 | 0.00 | 57 | 1017.4 |
| 20260901041233 | 60 | 53 | 1.7 | 4.3 | 0.00 | 0.00 | 0.00 | 58 | 1017.5 |
| 20260901040733 | 60 | 67 | 1.7 | 4.3 | 0.00 | 0.00 | 0.00 | 56 | 1017.4 |
| 20260901040233 | 60 | 92 | 2.6 | 5.2 | 0.00 | 0.00 | 0.00 | 56 | 1017.3 |
| 20260901034732 | 61 | 72 | 0.0 | 4.3 | 0.00 | 0.00 | 0.00 | 56 | 1017.0 |
| 20260901034232 | 61 | 44 | 0.9 | 4.3 | 0.00 | 0.00 | 0.00 | 56 | 1016.9 |
| 20260901033232 | 62 | 63 | 3.5 | 4.3 | 0.00 | 0.00 | 0.00 | 61 | 1016.8 |
| 20260901032732 | 62 | 76 | 2.6 | 4.3 | 0.00 | 0.00 | 0.00 | 62 | 1016.8 |
| 20260901032232 | 63 | 85 | 0.9 | 3.5 | 0.00 | 0.00 | 0.00 | 62 | 1016.8 |
| 20260901031732 | 63 | 77 | 0.9 | 3.5 | 0.00 | 0.00 | 0.00 | 62 | 1016.8 |
| 20260901030732 | 64 | 69 | 2.6 | 2.6 | 0.00 | 0.00 | 0.00 | 61 | 1016.6 |
| 20260901025732 | 65 | 57 | 2.6 | 2.6 | 0.00 | 0.00 | 0.00 | 59 | 1015.6 |
| 20260901025232 | 66 | 303 | 0.0 | 2.6 | 0.00 | 0.00 | 0.00 | 58 | 1015.7 |
| 20260901024732 | 67 | 298 | 2.6 | 2.6 | 0.00 | 0.00 | 0.00 | 58 | 1015.7 |
| 20260901024232 | 68 | 236 | 1.7 | 2.6 | 0.00 | 0.00 | 0.00 | 57 | 1015.9 |
| 20260901023231 | 69 | 237 | 0.0 | 0.9 | 0.00 | 0.00 | 0.00 | 56 | 1015.8 |
| 20260901022732 | 70 | 236 | 0.0 | 1.7 | 0.00 | 0.00 | 0.00 | 55 | 1015.9 |
| 20260901022231 | 70 | 237 | 0.0 | 2.6 | 0.00 | 0.00 | 0.00 | 55 | 1015.8 |
| 20260901021732 | 71 | 236 | 0.0 | 2.6 | 0.00 | 0.00 | 0.00 | 55 | 1015.7 |
| 20260901021231 | 71 | 236 | 1.7 | 2.6 | 0.00 | 0.00 | 0.00 | 54 | 1015.6 |
| 20260901020731 | 72 | 237 | 0.0 | 3.5 | 0.00 | 0.00 | 0.00 | 53 | 1015.7 |
| 20260901020231 | 72 | 237 | 0.9 | 4.3 | 0.00 | 0.00 | 0.00 | 52 | 1015.7 |
| 20260901015732 | 72 | 238 | 0.9 | 4.3 | 0.00 | 0.00 | 0.00 | 51 | 1014.0 |
| 20260901015231 | 73 | 229 | 0.9 | 7.0 | 0.00 | 0.00 | 0.00 | 50 | 1014.2 |
| 20260901014731 | 74 | 238 | 4.3 | 7.0 | 0.00 | 0.00 | 0.00 | 50 | 1014.3 |
| 20260901014231 | 74 | 228 | 0.9 | 5.2 | 0.00 | 0.00 | 0.00 | 49 | 1014.3 |
| 20260901013731 | 75 | 228 | 1.7 | 4.3 | 0.00 | 0.00 | 0.00 | 48 | 1014.5 |
| 20260901013230 | 75 | 245 | 1.7 | 7.8 | 0.00 | 0.00 | 0.00 | 47 | 1014.6 |
| 20260901012730 | 76 | 244 | 0.9 | 7.8 | 0.00 | 0.00 | 0.00 | 46 | 1014.6 |
| 20260901012230 | 77 | 233 | 0.9 | 7.0 | 0.00 | 0.00 | 0.00 | 45 | 1014.8 |
| 20260901011731 | 77 | 236 | 1.7 | 7.0 | 0.00 | 0.00 | 0.00 | 44 | 1014.8 |
| 20260901011231 | 78 | 238 | 2.6 | 7.0 | 0.00 | 0.00 | 0.00 | 43 | 1014.7 |
| 20260901010731 | 79 | 215 | 0.9 | 6.1 | 0.00 | 0.00 | 0.00 | 43 | 1014.9 |
| 20260901010249 | 79 | 254 | 1.7 | 7.0 | 0.00 | 0.00 | 0.00 | 41 | 1014.9 |
| 20260901005230 | 79 | 215 | 0.9 | 7.8 | 0.00 | 0.00 | 0.00 | 40 | 1014.7 |
| 20260901004730 | 80 | 246 | 0.0 | 9.6 | 0.00 | 0.00 | 0.00 | 39 | 1014.8 |
| 20260901004230 | 80 | 232 | 7.0 | 9.6 | 0.00 | 0.00 | 0.00 | 38 | 1014.7 |
| 20260901003731 | 80 | 225 | 4.3 | 10.4 | 0.00 | 0.00 | 0.00 | 37 | 1014.7 |
| 20260901003230 | 80 | 229 | 3.5 | 10.4 | 0.00 | 0.00 | 0.00 | 37 | 1014.8 |
| 20260901002230 | 81 | 259 | 1.7 | 8.7 | 0.00 | 0.00 | 0.00 | 37 | 1015.2 |
| 20260901001730 | 82 | 239 | 1.7 | 9.6 | 0.00 | 0.00 | 0.00 | 37 | 1015.1 |
| 20260901001230 | 82 | 261 | 3.5 | 9.6 | 0.00 | 0.00 | 0.00 | 37 | 1015.2 |
| 20260901000729 | 82 | 229 | 4.3 | 11.3 | 0.00 | 0.00 | 0.00 | 37 | 1015.2 |
| 20260901000230 | 83 | 236 | 4.3 | 11.3 | 0.00 | 0.00 | 0.00 | 37 | 1015.5 |
| 20260831235730 | 83 | 261 | 6.1 | 9.6 | 0.00 | 0.00 | 0.00 | 36 | 1015.5 |
| 20260831235230 | 83 | 208 | 4.3 | 9.6 | 0.00 | 0.00 | 0.00 | 37 | 1015.5 |
| 20260831234730 | 83 | 236 | 5.2 | 10.4 | 0.00 | 0.00 | 0.00 | 37 | 1015.5 |
| 20260831234229 | 83 | 213 | 0.0 | 10.4 | 0.00 | 0.00 | 0.00 | 37 | 1015.4 |
| 20260831233729 | 84 | 275 | 6.1 | 10.4 | 0.00 | 0.00 | 0.00 | 37 | 1015.7 |
| 20260831233229 | 85 | 226 | 5.2 | 9.6 | 0.00 | 0.00 | 0.00 | 36 | 1015.7 |
| 20260831232730 | 85 | 229 | 4.3 | 9.6 | 0.00 | 0.00 | 0.00 | 36 | 1015.6 |
| 20260831232229 | 85 | 226 | 0.9 | 8.7 | 0.00 | 0.00 | 0.00 | 37 | 1015.7 |
| 20260831231229 | 84 | 250 | 4.3 | 10.4 | 0.00 | 0.00 | 0.00 | 38 | 1015.8 |
| 20260831230729 | 84 | 272 | 2.6 | 11.3 | 0.00 | 0.00 | 0.00 | 37 | 1015.7 |
| 20260831225729 | 85 | 243 | 1.7 | 10.4 | 0.00 | 0.00 | 0.00 | 37 | 1016.1 |
| 20260831224729 | 86 | 250 | 7.0 | 12.2 | 0.00 | 0.00 | 0.00 | 36 | 1016.2 |
| 20260831224229 | 86 | 253 | 4.3 | 13.0 | 0.00 | 0.00 | 0.00 | 36 | 1016.1 |
| 20260831223229 | 86 | 242 | 4.3 | 12.2 | 0.00 | 0.00 | 0.00 | 36 | 1016.1 |
| 20260831222729 | 86 | 216 | 3.5 | 13.9 | 0.00 | 0.00 | 0.00 | 36 | 1016.2 |
| 20260831221728 | 86 | 227 | 6.1 | 11.3 | 0.00 | 0.00 | 0.00 | 35 | 1016.1 |
| 20260831221228 | 86 | 249 | 3.5 | 10.4 | 0.00 | 0.00 | 0.00 | 35 | 1016.1 |
| 20260831215728 | 87 | 227 | 6.1 | 11.3 | 0.00 | 0.00 | 0.00 | 34 | 1016.5 |
| 20260831215228 | 87 | 206 | 0.9 | 13.9 | 0.00 | 0.00 | 0.00 | 34 | 1016.4 |
| 20260831214228 | 86 | 233 | 7.0 | 11.3 | 0.00 | 0.00 | 0.00 | 35 | 1016.4 |
| 20260831213728 | 86 | 259 | 6.1 | 11.3 | 0.00 | 0.00 | 0.00 | 35 | 1016.5 |
| 20260831213228 | 87 | 233 | 8.7 | 11.3 | 0.00 | 0.00 | 0.00 | 33 | 1016.5 |
| 20260831212228 | 89 | 245 | 2.6 | 12.2 | 0.00 | 0.00 | 0.00 | 33 | 1016.8 |
| 20260831211728 | 88 | 203 | 1.7 | 11.3 | 0.00 | 0.00 | 0.00 | 33 | 1016.9 |
| 20260831210228 | 88 | 219 | 9.6 | 11.3 | 0.00 | 0.00 | 0.00 | 33 | 1017.1 |
| 20260831205728 | 88 | 247 | 7.0 | 12.2 | 0.00 | 0.00 | 0.00 | 33 | 1017.2 |
| 20260831205227 | 87 | 218 | 0.9 | 12.2 | 0.00 | 0.00 | 0.00 | 34 | 1016.9 |
| 20260831204727 | 88 | 246 | 0.9 | 11.3 | 0.00 | 0.00 | 0.00 | 34 | 1017.1 |
| 20260831203728 | 88 | 215 | 1.7 | 8.7 | 0.00 | 0.00 | 0.00 | 33 | 1017.1 |
| 20260831203227 | 87 | 223 | 0.0 | 11.3 | 0.00 | 0.00 | 0.00 | 33 | 1016.9 |
| 20260831202227 | 87 | 236 | 4.3 | 13.0 | 0.00 | 0.00 | 0.00 | 34 | 1017.1 |
| 20260831201727 | 86 | 254 | 8.7 | 11.3 | 0.00 | 0.00 | 0.00 | 35 | 1017.1 |
| 20260831201227 | 86 | 243 | 4.3 | 10.4 | 0.00 | 0.00 | 0.00 | 35 | 1017.1 |
| 20260831200728 | 86 | 275 | 8.7 | 10.4 | 0.00 | 0.00 | 0.00 | 35 | 1017.2 |
| 20260831200257 | 86 | 230 | 0.9 | 10.4 | 0.00 | 0.00 | 0.00 | 34 | 1017.2 |
| 20260831195727 | 87 | 238 | 3.5 | 12.2 | 0.00 | 0.00 | 0.00 | 33 | 1017.5 |
| 20260831194727 | 87 | 194 | 1.7 | 8.7 | 0.00 | 0.00 | 0.00 | 32 | 1017.3 |
| 20260831194227 | 86 | 210 | 1.7 | 10.4 | 0.00 | 0.00 | 0.00 | 32 | 1017.4 |
| 20260831193728 | 86 | 241 | 5.2 | 10.4 | 0.00 | 0.00 | 0.00 | 32 | 1017.6 |
| 20260831193227 | 86 | 283 | 2.6 | 8.7 | 0.00 | 0.00 | 0.00 | 30 | 1017.4 |
| 20260831192727 | 87 | 236 | 5.2 | 9.6 | 0.00 | 0.00 | 0.00 | 29 | 1017.6 |
| 20260831192227 | 87 | 244 | 4.3 | 9.6 | 0.00 | 0.00 | 0.00 | 29 | 1017.7 |
| 20260831191226 | 87 | 225 | 2.6 | 12.2 | 0.00 | 0.00 | 0.00 | 28 | 1017.6 |
| 20260831190727 | 87 | 265 | 2.6 | 12.2 | 0.00 | 0.00 | 0.00 | 27 | 1017.7 |
| 20260831190256 | 87 | 157 | 6.1 | 11.3 | 0.00 | 0.00 | 0.00 | 28 | 1017.6 |
| 20260831185726 | 88 | 279 | 1.7 | 8.7 | 0.00 | 0.00 | 0.00 | 27 | 1017.9 |
| 20260831184256 | 88 | 231 | 1.7 | 11.3 | 0.00 | 0.00 | 0.00 | 26 | 1017.8 |
| 20260831183756 | 87 | 206 | 3.5 | 11.3 | 0.00 | 0.00 | 0.00 | 25 | 1017.8 |
| 20260831183245 | 88 | 258 | 0.0 | 9.6 | 0.00 | 0.00 | 0.00 | 24 | 1017.7 |
| 20260831182756 | 87 | 242 | 2.6 | 10.4 | 0.00 | 0.00 | 0.00 | 25 | 1017.8 |
| 20260831182256 | 87 | 259 | 6.1 | 10.4 | 0.00 | 0.00 | 0.00 | 25 | 1017.8 |
| 20260831181745 | 87 | 223 | 2.6 | 9.6 | 0.00 | 0.00 | 0.00 | 25 | 1017.8 |
| 20260831181255 | 87 | 271 | 3.5 | 9.6 | 0.00 | 0.00 | 0.00 | 28 | 1017.9 |
| 20260831180756 | 87 | 202 | 4.3 | 9.6 | 0.00 | 0.00 | 0.00 | 28 | 1017.9 |
| 20260831180256 | 87 | 210 | 2.6 | 10.4 | 0.00 | 0.00 | 0.00 | 28 | 1017.9 |
| 20260831175756 | 86 | 236 | 1.7 | 10.4 | 0.00 | 0.00 | 0.00 | 27 | 1017.6 |
| 20260831174755 | 86 | 226 | 1.7 | 9.6 | 0.00 | 0.00 | 0.00 | 29 | 1017.6 |
| 20260831173755 | 85 | 225 | 2.6 | 9.6 | 0.00 | 0.00 | 0.00 | 27 | 1017.5 |
| 20260831172756 | 85 | 251 | 1.7 | 9.6 | 0.00 | 0.00 | 0.00 | 28 | 1017.4 |
| 20260831172255 | 86 | 212 | 4.3 | 9.6 | 0.00 | 0.00 | 0.00 | 26 | 1017.4 |
| 20260831171755 | 85 | 232 | 1.7 | 9.6 | 0.00 | 0.00 | 0.00 | 24 | 1017.3 |
| 20260831171255 | 86 | 234 | 2.6 | 7.0 | 0.00 | 0.00 | 0.00 | 20 | 1017.3 |
| 20260831170755 | 85 | 250 | 0.9 | 9.6 | 0.00 | 0.00 | 0.00 | 20 | 1017.2 |
| 20260831170255 | 85 | 185 | 4.3 | 9.6 | 0.00 | 0.00 | 0.00 | 18 | 1017.2 |
| 20260831165744 | 85 | 202 | 0.9 | 7.0 | 0.00 | 0.00 | 0.00 | 20 | 1017.0 |
| 20260831165255 | 84 | 238 | 4.3 | 8.7 | 0.00 | 0.00 | 0.00 | 18 | 1017.1 |
| 20260831164755 | 83 | 251 | 3.5 | 8.7 | 0.00 | 0.00 | 0.00 | 17 | 1016.8 |
| 20260831163754 | 83 | 236 | 2.6 | 8.7 | 0.00 | 0.00 | 0.00 | 16 | 1016.8 |
| 20260831162754 | 83 | 202 | 0.0 | 7.0 | 0.00 | 0.00 | 0.00 | 18 | 1016.8 |
| 20260831162254 | 83 | 257 | 3.5 | 7.8 | 0.00 | 0.00 | 0.00 | 18 | 1016.8 |
| 20260831161754 | 82 | 240 | 2.6 | 7.8 | 0.00 | 0.00 | 0.00 | 18 | 1016.8 |
| 20260831161254 | 82 | 238 | 3.5 | 6.1 | 0.00 | 0.00 | 0.00 | 16 | 1016.7 |
| 20260831160755 | 82 | 230 | 0.0 | 4.3 | 0.00 | 0.00 | 0.00 | 16 | 1016.7 |
| 20260831160254 | 81 | 238 | 0.9 | 5.2 | 0.00 | 0.00 | 0.00 | 17 | 1016.5 |
| 20260831155255 | 80 | 245 | 0.0 | 5.2 | 0.00 | 0.00 | 0.00 | 16 | 1016.6 |
| 20260831154254 | 80 | 242 | 0.9 | 6.1 | 0.00 | 0.00 | 0.00 | 16 | 1016.5 |
| 20260831153754 | 79 | 241 | 0.0 | 2.6 | 0.00 | 0.00 | 0.00 | 19 | 1016.5 |
| 20260831151754 | 74 | 82 | 0.0 | 0.0 | 0.00 | 0.00 | 0.00 | 22 | 1015.8 |
| 20260831151254 | 73 | 73 | 0.0 | 0.0 | 0.00 | 0.00 | 0.00 | 25 | 1015.8 |
| 20260831150754 | 72 | 68 | 0.0 | 0.0 | 0.00 | 0.00 | 0.00 | 25 | 1015.6 |
| 20260831150254 | 70 | 68 | 0.0 | 0.9 | 0.00 | 0.00 | 0.00 | 26 | 1015.3 |
| 20260831145754 | 68 | 68 | 0.0 | 6.1 | 0.00 | 0.00 | 0.00 | 27 | 1015.4 |
| 20260831145254 | 67 | 67 | 0.0 | 6.1 | 0.00 | 0.00 | 0.00 | 28 | 1015.5 |
| 20260831144753 | 66 | 74 | 3.5 | 6.1 | 0.00 | 0.00 | 0.00 | 28 | 1015.2 |
| 20260831144253 | 64 | 65 | 2.6 | 5.2 | 0.00 | 0.00 | 0.00 | 30 | 1014.9 |
| 20260831143753 | 63 | 70 | 1.7 | 5.2 | 0.00 | 0.00 | 0.00 | 31 | 1014.9 |
| 20260831143243 | 62 | 80 | 1.7 | 7.0 | 0.00 | 0.00 | 0.00 | 31 | 1014.7 |
| 20260831142753 | 61 | 57 | 2.6 | 7.0 | 0.00 | 0.00 | 0.00 | 32 | 1014.7 |
| 20260831141753 | 59 | 34 | 2.6 | 6.1 | 0.00 | 0.00 | 0.00 | 33 | 1014.4 |
| 20260831141253 | 58 | 98 | 2.6 | 6.1 | 0.00 | 0.00 | 0.00 | 34 | 1014.0 |
| 20260831140753 | 57 | 60 | 3.5 | 7.0 | 0.00 | 0.00 | 0.00 | 34 | 1014.0 |
| 20260831140253 | 57 | 45 | 4.3 | 7.0 | 0.00 | 0.00 | 0.00 | 34 | 1014.0 |
| 20260831135753 | 57 | 71 | 4.3 | 7.0 | 0.00 | 0.00 | 0.00 | 34 | 1014.7 |
| 20260831135254 | 57 | 51 | 3.5 | 7.0 | 0.00 | 0.00 | 0.00 | 33 | 1014.7 |
| 20260831134753 | 56 | 57 | 4.3 | 6.1 | 0.00 | 0.00 | 0.00 | 33 | 1014.4 |
| 20260831134252 | 56 | 44 | 4.3 | 6.1 | 0.00 | 0.00 | 0.00 | 33 | 1014.4 |
| 20260831133754 | 56 | 70 | 3.5 | 6.1 | 0.00 | 0.00 | 0.00 | 33 | 1014.4 |
| 20260831133242 | 56 | 69 | 3.5 | 7.0 | 0.00 | 0.00 | 0.00 | 34 | 1014.2 |
| 20260831132753 | 56 | 48 | 4.3 | 7.0 | 0.00 | 0.00 | 0.00 | 34 | 1014.1 |
| 20260831132253 | 56 | 72 | 4.3 | 7.0 | 0.00 | 0.00 | 0.00 | 34 | 1014.0 |
| 20260831131752 | 55 | 80 | 2.6 | 5.2 | 0.00 | 0.00 | 0.00 | 34 | 1014.0 |
| 20260831130752 | 55 | 71 | 3.5 | 6.1 | 0.00 | 0.00 | 0.00 | 34 | 1013.9 |
| 20260831130252 | 55 | 82 | 4.3 | 6.1 | 0.00 | 0.00 | 0.00 | 34 | 1013.9 |
| 20260831125752 | 55 | 75 | 2.6 | 6.1 | 0.00 | 0.00 | 0.00 | 34 | 1014.6 |
| 20260831125252 | 55 | 51 | 2.6 | 5.2 | 0.00 | 0.00 | 0.00 | 33 | 1014.4 |
| 20260831124752 | 56 | 51 | 3.5 | 5.2 | 0.00 | 0.00 | 0.00 | 34 | 1014.5 |
| 20260831124252 | 56 | 44 | 2.6 | 5.2 | 0.00 | 0.00 | 0.00 | 33 | 1014.4 |
| 20260831123752 | 56 | 58 | 3.5 | 5.2 | 0.00 | 0.00 | 0.00 | 33 | 1014.4 |
| 20260831123252 | 56 | 64 | 4.3 | 5.2 | 0.00 | 0.00 | 0.00 | 33 | 1014.4 |
| 20260831122752 | 56 | 59 | 4.3 | 5.2 | 0.00 | 0.00 | 0.00 | 33 | 1014.4 |
| 20260831122252 | 56 | 51 | 3.5 | 6.1 | 0.00 | 0.00 | 0.00 | 32 | 1014.3 |
| 20260831121752 | 56 | 62 | 4.3 | 7.0 | 0.00 | 0.00 | 0.00 | 32 | 1014.3 |
| 20260831120241 | 56 | 77 | 4.3 | 7.0 | 0.00 | 0.00 | 0.00 | 32 | 1014.3 |
| 20260831115752 | 56 | 57 | 2.6 | 7.8 | 0.00 | 0.00 | 0.00 | 32 | 1014.7 |
| 20260831114752 | 56 | 73 | 7.0 | 7.0 | 0.00 | 0.00 | 0.00 | 32 | 1014.7 |
| 20260831114252 | 57 | 60 | 2.6 | 7.0 | 0.00 | 0.00 | 0.00 | 32 | 1014.9 |
| 20260831113752 | 57 | 58 | 2.6 | 7.0 | 0.00 | 0.00 | 0.00 | 32 | 1015.0 |
| 20260831113240 | 57 | 54 | 5.2 | 8.7 | 0.00 | 0.00 | 0.00 | 32 | 1014.9 |
| 20260831112751 | 57 | 28 | 5.2 | 8.7 | 0.00 | 0.00 | 0.00 | 33 | 1014.9 |
| 20260831111751 | 57 | 58 | 5.2 | 6.1 | 0.00 | 0.00 | 0.00 | 33 | 1015.0 |
| 20260831110751 | 57 | 55 | 2.6 | 7.0 | 0.00 | 0.00 | 0.00 | 34 | 1015.0 |
| 20260831110240 | 57 | 44 | 5.2 | 6.1 | 0.00 | 0.00 | 0.00 | 34 | 1014.9 |
| 20260831105751 | 57 | 54 | 2.6 | 6.1 | 0.00 | 0.00 | 0.00 | 34 | 1015.2 |
| 20260831105251 | 57 | 29 | 4.3 | 6.1 | 0.00 | 0.00 | 0.00 | 35 | 1015.2 |
| 20260831104751 | 57 | 36 | 2.6 | 6.1 | 0.00 | 0.00 | 0.00 | 35 | 1015.2 |
| 20260831103750 | 57 | 70 | 2.6 | 7.0 | 0.00 | 0.00 | 0.00 | 35 | 1015.3 |
| 20260831103239 | 57 | 42 | 4.3 | 7.0 | 0.00 | 0.00 | 0.00 | 36 | 1015.3 |
| 20260831102751 | 57 | 84 | 3.5 | 7.0 | 0.00 | 0.00 | 0.00 | 37 | 1015.3 |
| 20260831102251 | 57 | 61 | 2.6 | 7.0 | 0.00 | 0.00 | 0.00 | 37 | 1015.3 |
| 20260831100750 | 58 | 62 | 3.5 | 7.0 | 0.00 | 0.00 | 0.00 | 38 | 1015.5 |
| 20260831100250 | 58 | 48 | 3.5 | 6.1 | 0.00 | 0.00 | 0.00 | 38 | 1015.4 |
| 20260831095750 | 58 | 69 | 4.3 | 6.1 | 0.00 | 0.00 | 0.00 | 38 | 1015.5 |
| 20260831095250 | 58 | 68 | 3.5 | 7.0 | 0.00 | 0.00 | 0.00 | 38 | 1015.6 |
| 20260831094750 | 58 | 70 | 3.5 | 7.0 | 0.00 | 0.00 | 0.00 | 39 | 1015.6 |
| 20260831094250 | 58 | 68 | 4.3 | 7.0 | 0.00 | 0.00 | 0.00 | 40 | 1015.6 |
| 20260831093750 | 58 | 63 | 4.3 | 6.1 | 0.00 | 0.00 | 0.00 | 40 | 1015.6 |
| 20260831093250 | 58 | 73 | 4.3 | 7.0 | 0.00 | 0.00 | 0.00 | 40 | 1015.7 |
| 20260831092750 | 58 | 64 | 2.6 | 7.0 | 0.00 | 0.00 | 0.00 | 40 | 1015.7 |
| 20260831092249 | 58 | 73 | 3.5 | 7.0 | 0.00 | 0.00 | 0.00 | 40 | 1015.7 |
| 20260831091750 | 58 | 80 | 6.1 | 7.0 | 0.00 | 0.00 | 0.00 | 40 | 1015.8 |
| 20260831090750 | 58 | 45 | 4.3 | 7.8 | 0.00 | 0.00 | 0.00 | 40 | 1015.9 |
| 20260831090239 | 59 | 65 | 2.6 | 7.8 | 0.00 | 0.00 | 0.00 | 40 | 1016.1 |
| 20260831085749 | 59 | 73 | 3.5 | 7.0 | 0.00 | 0.00 | 0.00 | 41 | 1016.1 |
| 20260831085249 | 58 | 74 | 4.3 | 7.8 | 0.00 | 0.00 | 0.00 | 40 | 1015.9 |
| 20260831084749 | 58 | 67 | 5.2 | 7.8 | 0.00 | 0.00 | 0.00 | 39 | 1016.1 |
| 20260831084249 | 59 | 74 | 3.5 | 7.0 | 0.00 | 0.00 | 0.00 | 39 | 1016.3 |
| 20260831083749 | 59 | 61 | 4.3 | 7.0 | 0.00 | 0.00 | 0.00 | 39 | 1016.3 |
| 20260831083238 | 59 | 31 | 3.5 | 7.0 | 0.00 | 0.00 | 0.00 | 40 | 1016.3 |
| 20260831082749 | 59 | 79 | 2.6 | 7.0 | 0.00 | 0.00 | 0.00 | 40 | 1016.3 |
| 20260831082249 | 59 | 59 | 3.5 | 6.1 | 0.00 | 0.00 | 0.00 | 40 | 1016.4 |
| 20260831081749 | 59 | 69 | 3.5 | 6.1 | 0.00 | 0.00 | 0.00 | 40 | 1016.4 |
| 20260831081249 | 59 | 57 | 4.3 | 7.0 | 0.00 | 0.00 | 0.00 | 40 | 1016.4 |
| 20260831080749 | 59 | 61 | 4.3 | 7.0 | 0.00 | 0.00 | 0.00 | 40 | 1016.4 |